Dewpoint
9 14 15 13 17 19 21 24 24 25 26 29 30 24 23 21 25 35 40 46 50 51 52 57 59 63 64 63 64 65 66 67 68 68 67 66 67 69 71 71 70 71 70 71
11 11 11 11 9 12 14 17 20 22 24 28 35 28 23 19 21 21 33 41 49 53 54 57 60 64 66 65 65 66 68 67 69 70 69 68 69 69 70 70 71 71 70 70
16 17 17 14 12 10 10 12 12 14 17 17 19 23 21 21 21 24 35 37 43 52 56 58 62 65 67 66 66 68 70 69 70 70 69 69 69 70 70 70 70 70 70 70
18 22 17 17 16 14 13 13 14 16 16 18 19 19 20 23 36 39 39 40 45 51 56 59 62 65 66 67 69 70 70 70 70 70 69 69 69 69 69 70 70 70 70 70
19 19 18 19 24 19 16 29 36 36 32 34 32 26 26 44 45 45 43 41 41 51 55 61 63 66 68 67 70 70 70 71 71 70 69 69 68 68 69 70 70 70 70 70
23 20 17 29 31 33 29 25 39 40 43 44 42 31 30 46 45 45 47 49 48 51 56 60 64 66 68 70 70 71 71 72 72 71 69 68 69 70 70 70 70 68 68 69
20 20 23 33 33 33 23 33 40 42 46 48 49 51 51 52 53 49 52 55 56 54 54 60 65 66 69 70 70 71 72 72 72 71 70 70 70 70 69 69 69 67 69 69
21 19 19 36 35 35 38 41 41 42 45 49 51 52 53 54 55 54 51 56 59 58 58 61 65 68 69 70 72 73 73 72 72 72 69 68 70 70 70 70 69 69 69 70
31 36 37 35 35 35 37 39 39 41 41 44 46 49 51 53 56 58 56 54 59 59 61 62 66 67 68 71 72 73 72 72 72 72 70 71 71 70 69 70 67 68 69 70
29 35 34 35 35 35 36 36 36 36 38 41 42 46 47 51 55 58 60 60 58 60 61 63 66 67 68 70 71 72 72 72 71 71 69 70 69 69 67 67 67 65 66 67
29 37 37 35 37 35 35 38 38 36 36 36 40 43 45 47 50 56 59 62 63 61 62 64 66 68 68 70 71 71 71 70 69 68 68 69 68 66 66 66 65 64 65 66
34 36 37 38 36 35 36 38 38 37 36 36 37 41 43 44 47 49 56 60 64 66 64 65 66 68 68 67 70 70 70 68 67 65 66 65 66 64 64 64 65 65 65 65
37 39 38 35 35 38 37 37 37 37 35 34 35 38 41 43 45 46 49 53 61 65 67 68 68 68 69 68 69 69 69 69 67 66 64 65 63 63 61 64 63 63 63 63
38 39 36 35 34 36 37 37 38 37 36 34 33 36 39 41 43 45 46 46 50 57 65 67 68 67 68 69 69 70 69 68 68 65 64 64 65 65 63 63 65 65 63 63
39 39 38 38 38 38 39 39 39 38 39 39 39 37 37 41 43 44 45 44 44 47 52 61 61 65 67 67 67 65 66 66 67 65 64 64 64 64 65 64 65 66 65 63
44 42 41 41 41 41 40 40 40 41 41 42 42 42 41 40 41 43 45 45 45 44 50 52 55 59 61 61 67 69 71 69 69 68 64 64 63 63 63 62 64 65 64 65
44 44 45 45 45 45 44 45 44 43 43 42 43 44 44 45 44 43 44 44 45 45 47 48 51 53 57 60 60 62 67 67 66 69 65 63 64 63 63 62 60 60 61 64
46 47 47 46 47 47 47 47 48 47 46 46 45 45 45 45 45 46 46 47 47 47 46 45 46 51 55 55 54 55 61 64 63 60 61 60 62 66 64 63 63 61 60 60
47 48 48 48 48 48 48 48 49 48 50 50 48 48 47 47 46 46 47 46 47 49 48 49 48 48 47 46 51 49 57 61 63 59 58 60 59 59 66 65 65 64 64 66
45 47 46 47 48 49 49 50 50 50 51 49 50 49 49 49 49 49 48 48 47 47 47 46 47 46 46 42 49 44 44 60 62 58 57 57 57 62 64 67 67 65 63 66
47 48 46 47 47 48 48 49 50 50 51 52 51 51 52 52 51 50 50 49 48 47 47 48 48 47 46 46 43 42 39 45 59 60 63 60 59 61 66 66 65 65 63 62
45 46 48 46 47 47 48 49 49 50 50 51 52 52 52 52 52 52 51 51 50 50 48 46 46 47 47 47 45 43 40 37 38 52 57 59 60 57 57 58 59 59 59 58
47 46 45 45 46 47 48 48 48 49 50 50 51 52 52 52 51 51 50 51 51 50 49 48 48 48 48 48 46 45 43 43 42 40 39 40 40 43 45 46 53 56 55 54
48 45 46 45 47 48 47 48 49 51 51 52 53 53 53 52 52 53 53 53 51 51 50 50 49 48 48 46 46 45 44 42 42 42 43 42 41 40 40 41 45 45 45 48
47 46 46 45 46 48 48 48 49 49 49 50 52 54 53 54 54 53 53 54 53 52 52 51 50 48 48 47 46 45 45 43 43 43 42 43 44 43 42 41 40 40 44 47
46 46 46 46 44 47 48 48 47 49 49 48 49 49 50 52 53 54 54 53 53 54 54 53 53 51 49 47 46 46 46 45 43 42 41 42 44 45 44 44 43 43 43 44
46 47 47 43 44 44 46 46 46 47 48 48 48 48 49 51 53 53 54 54 54 53 54 56 56 54 52 49 48 46 46 45 44 43 41 40 42 45 45 46 47 47 46 46
Wind_Speed
23 20 10 15 21 21 23 25 26 23 17 9 21 4 9 10 6 6 3 5 9 12 15 19 19 20 19 21 22 23 22 21 20 18 18 16 14 16 16 17 16 16 14 14
20 20 18 21 19 16 21 21 21 22 25 10 42 10 5 11 11 13 5 3 7 9 13 20 21 19 20 21 22 20 19 20 19 17 15 15 13 15 14 15 18 16 16 15
15 17 21 23 22 17 18 19 19 20 21 19 18 11 8 10 15 12 14 15 8 13 15 18 22 22 21 22 19 18 17 17 17 17 17 15 15 14 15 16 16 17 16 16
15 8 16 12 15 18 17 16 14 16 13 15 15 11 11 15 14 12 11 14 9 11 15 17 20 23 22 22 19 18 18 18 17 17 16 16 15 15 15 14 15 16 15 16
15 13 8 8 5 5 6 12 18 16 15 16 17 12 14 16 13 13 16 16 12 11 14 17 20 22 21 22 20 20 21 20 19 17 17 17 16 17 14 13 13 13 15 16
11 13 15 15 8 6 5 8 17 15 12 14 14 15 10 22 18 17 17 15 13 8 13 19 20 23 23 22 23 23 22 22 19 18 17 19 16 15 14 14 14 16 16 15
16 14 3 8 6 3 9 6 13 13 12 12 11 12 18 21 20 15 14 12 10 8 11 17 19 23 23 22 24 22 20 21 20 19 18 17 17 16 15 15 14 10 14 14
19 20 18 14 4 5 6 9 11 13 14 15 15 14 15 17 18 17 13 13 6 7 7 15 20 20 21 22 20 20 19 21 22 20 19 19 18 16 16 14 14 16 15 14
8 7 10 16 17 12 11 11 12 13 16 16 16 17 17 18 18 19 17 11 12 4 5 10 17 20 23 19 20 21 22 22 22 22 20 20 20 20 19 17 16 17 16 16
1 9 9 11 13 13 11 12 13 14 15 16 18 18 18 17 18 18 17 17 14 9 7 10 15 18 19 18 19 21 22 22 21 22 21 21 22 22 21 22 21 20 18 18
3 13 4 5 11 13 10 12 15 15 15 16 17 17 18 17 16 16 16 16 16 13 8 10 12 16 18 18 20 21 20 21 22 22 24 22 22 23 24 22 22 21 21 20
9 10 8 9 10 11 13 15 16 17 18 17 16 16 15 15 13 15 14 15 13 12 10 6 10 13 15 18 21 21 18 20 22 22 23 23 24 23 23 19 27 26 18 15
8 10 13 14 11 13 15 17 18 20 19 19 19 15 14 13 12 12 13 11 13 10 11 6 8 11 12 13 18 21 24 22 23 24 24 24 23 23 24 12 15 30 26 18
8 14 16 14 17 17 18 18 19 20 20 19 18 18 17 13 13 11 11 13 7 10 8 9 4 11 7 10 8 16 20 19 16 24 26 24 24 24 24 23 23 24 22 24
12 13 17 19 19 19 20 21 21 21 20 20 19 19 19 19 15 13 12 12 12 7 6 6 5 4 6 6 9 21 19 17 20 25 25 26 25 26 25 25 21 21 21 19
21 21 22 23 24 23 23 22 23 23 22 22 21 21 21 20 21 20 17 14 12 11 8 7 10 10 7 10 8 9 11 13 23 23 25 24 25 24 25 25 24 23 23 25
21 22 23 24 25 27 30 30 29 27 26 26 26 24 23 23 23 23 22 21 18 14 13 11 11 7 8 10 8 8 7 3 10 40 26 24 23 26 25 25 26 26 26 23
18 20 22 23 24 25 27 28 29 31 32 30 27 27 27 26 25 24 24 24 22 21 17 17 13 11 10 9 7 6 4 9 8 12 17 15 12 19 22 25 26 26 25 24
14 17 20 22 23 25 27 29 29 30 28 28 29 30 28 28 27 26 25 26 25 23 23 22 21 13 15 15 12 8 10 14 16 13 14 23 9 27 33 23 25 26 22 19
18 21 20 22 23 23 24 25 27 30 30 30 31 28 27 30 27 26 27 28 28 26 25 23 23 24 21 20 14 11 12 13 12 4 11 17 26 31 42 30 19 18 24 19
19 22 24 22 25 25 27 23 24 25 26 29 31 28 27 24 23 27 29 28 27 27 28 26 27 25 22 20 17 17 16 16 12 9 13 8 6 49 54 13 16 20 17 19
20 24 23 28 27 29 27 27 25 25 24 24 27 29 28 28 27 27 28 29 27 27 26 25 27 29 28 25 21 21 21 17 15 20 24 28 30 30 19 13 18 14 13 14
18 21 25 29 32 28 27 26 25 24 25 26 26 26 28 27 26 23 23 23 24 28 30 29 30 26 26 26 25 27 23 21 20 17 17 15 15 15 16 17 16 16 17 19
17 18 22 28 27 25 28 29 29 25 22 24 23 24 25 23 23 22 24 27 31 35 29 24 26 31 31 26 26 26 26 27 23 22 21 20 18 17 17 17 16 15 17 15
17 15 18 25 27 24 26 27 27 24 26 26 29 23 18 16 19 23 22 22 27 29 28 24 28 34 30 25 29 28 27 26 25 23 22 22 21 24 21 20 20 19 19 19
17 15 17 16 20 22 23 24 26 24 25 25 24 24 25 22 21 22 22 26 26 24 23 22 22 19 25 28 30 30 29 30 29 28 28 26 23 22 25 25 23 21 21 23
17 18 18 19 21 21 21 23 25 27 26 27 22 24 24 24 24 27 26 24 23 23 17 16 19 23 21 18 22 27 29 28 29 29 28 27 24 25 27 26 24 21 21 21
Wind_Direction
236 268 247 238 208 226 245 258 261 267 280 319 307 13 2 339 359 40 343 256 215 236 198 191 200 189 198 196 198 196 192 190 195 205 205 215 197 202 209 209 204 199 195 188
239 249 241 248 246 241 222 240 262 279 284 231 230 307 336 283 347 335 10 274 245 221 224 189 196 191 194 200 195 195 184 199 182 186 202 211 198 209 200 200 202 197 192 192
235 243 248 236 240 232 238 239 242 246 254 273 283 279 299 317 307 332 1 320 276 218 218 205 194 190 192 195 191 187 176 200 174 178 198 201 194 193 196 197 193 189 189 185
248 275 240 235 239 215 248 262 270 274 278 285 281 314 339 328 7 356 326 321 278 237 206 206 195 187 194 189 183 181 174 193 181 184 193 195 187 189 196 191 188 189 179 176
235 236 245 174 63 341 302 62 23 357 350 342 344 344 287 35 2 339 317 312 277 227 206 199 195 185 188 183 178 180 182 186 184 184 193 191 192 190 189 182 184 178 167 168
238 263 259 75 35 7 310 186 10 4 3 345 329 277 302 355 357 346 334 327 306 226 196 185 192 182 182 180 177 185 186 181 181 181 194 187 189 185 180 181 181 182 164 168
236 256 217 35 13 311 243 39 6 4 357 344 337 331 321 345 346 331 336 322 315 260 229 176 187 185 184 178 186 185 186 179 177 181 191 190 181 177 179 180 174 181 172 183
243 252 242 353 57 5 52 53 19 9 5 352 335 337 346 347 348 339 328 326 318 277 246 165 183 181 184 186 181 179 179 184 178 176 190 184 187 175 178 178 176 189 183 184
18 54 87 58 75 59 33 46 19 11 4 354 349 345 353 348 357 349 340 337 320 286 215 183 184 187 194 188 177 181 179 190 183 173 189 176 181 187 187 183 196 198 192 187
248 119 96 84 62 37 31 22 7 2 352 353 351 350 353 352 359 357 351 336 332 304 180 199 190 199 201 187 185 187 187 192 186 181 186 182 189 190 197 193 205 204 198 200
245 70 316 138 49 12 355 359 351 346 345 341 343 348 350 348 1 358 357 347 333 317 295 190 198 205 207 188 186 193 198 201 194 192 190 190 201 199 204 206 201 208 200 205
32 32 348 1 341 342 354 338 331 330 330 332 330 331 341 342 360 352 357 356 347 327 310 310 196 201 206 207 190 193 196 210 208 203 192 204 206 212 211 224 191 210 219 217
347 350 326 307 340 335 326 326 324 321 313 315 313 312 317 329 348 341 350 3 358 343 332 320 289 199 194 208 188 203 194 200 219 214 209 204 211 216 211 202 199 200 216 236
332 339 325 328 319 322 314 316 312 309 306 304 305 306 303 303 314 331 339 329 3 357 344 357 260 213 223 240 232 204 211 224 235 215 225 206 209 215 222 213 207 212 221 221
344 323 316 317 313 312 315 312 309 306 308 305 306 300 298 299 296 296 302 309 323 311 348 320 294 266 273 284 278 232 221 209 227 236 216 229 209 215 212 217 212 210 209 208
337 325 321 317 314 308 303 301 300 300 300 298 299 297 296 292 290 286 284 281 285 296 300 290 290 292 290 311 332 325 265 279 304 240 234 217 231 216 220 223 207 211 204 199
322 321 318 312 312 308 307 307 303 297 291 288 288 291 291 290 287 283 280 272 267 260 263 261 269 265 288 287 313 331 355 91 241 275 236 214 218 226 223 223 223 217 213 200
332 324 317 310 305 305 304 301 298 295 292 289 283 282 281 280 278 281 281 281 276 273 258 267 254 240 229 242 267 275 240 210 218 268 304 306 326 271 226 225 222 223 220 203
323 316 313 315 314 310 305 302 299 294 291 290 291 288 279 273 274 274 275 275 273 263 259 258 265 230 240 237 221 235 265 266 236 233 289 272 329 324 282 229 219 221 218 159
342 326 324 317 311 307 305 300 302 302 292 283 280 273 274 280 274 268 267 265 266 270 273 266 256 255 250 256 201 237 233 227 233 225 325 333 338 315 288 240 239 226 224 184
338 329 338 335 330 331 326 315 305 298 296 293 284 277 273 267 269 276 274 264 263 265 263 259 262 265 263 244 244 238 236 232 215 161 207 246 340 286 233 245 226 231 228 218
349 345 336 337 342 337 325 316 310 301 295 289 282 277 276 275 270 263 259 267 275 273 270 262 250 246 245 260 263 269 261 242 230 198 193 189 210 237 262 233 244 239 246 254
348 352 349 351 347 340 329 329 321 310 299 294 292 284 276 271 274 277 271 261 260 254 250 253 262 269 246 234 247 252 262 263 265 254 245 239 238 245 257 265 226 212 230 239
353 1 358 355 352 343 340 336 332 323 316 306 291 285 281 276 275 269 268 267 269 273 274 270 274 253 258 252 239 244 244 252 255 261 264 262 259 264 257 247 250 253 254 238
0 355 8 5 360 351 343 338 337 335 341 337 339 320 291 273 260 269 268 265 267 273 272 275 275 262 260 265 249 241 246 247 253 258 261 261 260 259 255 250 252 251 251 250
3 6 358 3 15 3 352 350 349 341 344 341 332 329 327 325 321 312 282 265 261 253 258 262 264 269 251 250 249 249 241 248 251 247 248 255 261 262 260 258 257 250 240 246
18 4 6 10 12 15 8 360 357 354 354 345 332 339 331 326 321 314 302 281 264 258 249 249 260 263 268 260 248 248 254 252 250 257 257 248 243 244 256 265 271 265 254 252